Weather History for Yellowstone, WY

Change the Weather History Date:

Tuesday, March 19, 2013

  Actual Average Record
Temperature  
Mean Temperature 18 °F 24 °F  
Max Temperature 33 °F 38 °F 49 °F (1999)
Min Temperature 3 °F 10 °F -11 °F (2014)
Degree Days  
Heating Degree Days 47 41  
Month to date heating degree days 826 831  
Since 1 July heating degree days 8693 8768  
Cooling Degree Days 0 0  
Month to date cooling degree days 0 0  
Year to date cooling degree days 0 0  
Moisture  
Dew Point 3 °F    
Average Humidity 56    
Maximum Humidity 91    
Minimum Humidity 21    
Precipitation  
Precipitation 0.02 in 0.05 in 0.30 in (2012)
Month to date precipitation 1.58 0.63  
Year to date precipitation 3.92 4.15  
Sea Level Pressure  
Sea Level Pressure 30.26 in    
Wind  
Wind Speed 4 mph (WNW)    
Max Wind Speed 15 mph    
Max Gust Speed 23 mph    
T = Trace of Precipitation, MM = Missing Value Source: NWS Daily Summary

Daily Weather History Graph

Daily Weather History Graph

Search for Another Location

Airport:

Trip Planner

Search our weather history database for the weather conditions in past years. The results will help you decide how hot, cold, wet, or windy it might be!

Date:

Astronomy

Mar. 19, 2013 Rise Set
Actual Time 7:26 AM MDT 7:33 PM MDT
Civil Twilight 6:57 AM MDT 8:02 PM MDT
Nautical Twilight 6:23 AM MDT 8:36 PM MDT
Astronomical Twilight 5:48 AM MDT 9:11 PM MDT
Moon 12:06 PM MDT (3/19) 2:35 AM MDT (3/19)
Length of Visible Light 13h 05m
Length of Day
12h 07m
Waxing Crescent, 50% of the Moon is Illuminated
Mar 19
Waxing Crescent
Mar 27
Full
Apr 2
Last Quarter
Apr 10
New
Apr 18
First Quarter

Hourly Weather History & Observations

Time (MDT) Temp. Windchill Dew Point Humidity Pressure Visibility Wind Dir Wind Speed Gust Speed Precip Events Conditions
12:56 AM 10.0 °F 3.6 °F 6.1 °F 84% 30.11 in - WNW 3.5 mph - N/A   Unknown
1:56 AM 3.9 °F - 1.0 °F 88% 30.17 in - Calm Calm - N/A   Unknown
2:56 AM 10.9 °F 4.7 °F 3.9 °F 73% 30.14 in - Variable 3.5 mph - N/A   Unknown
3:56 AM 14.0 °F 8.2 °F 8.1 °F 77% 30.11 in - West 3.5 mph - N/A   Unknown
4:56 AM 14.0 °F - 10.0 °F 84% 30.15 in - Calm Calm - 0.01 in   Unknown
5:56 AM 12.0 °F - 8.1 °F 84% 30.19 in - Calm Calm - N/A   Unknown
6:56 AM 12.0 °F - 7.0 °F 80% 30.23 in - Calm Calm - N/A   Unknown
7:56 AM 12.0 °F - 8.1 °F 84% 30.25 in - Calm Calm - 0.01 in   Unknown
8:56 AM 16.0 °F 8.8 °F 7.0 °F 68% 30.26 in - West 4.6 mph - N/A   Unknown
9:56 AM 19.0 °F 13.9 °F 7.0 °F 59% 30.27 in - Variable 3.5 mph 16.1 mph N/A   Unknown
10:56 AM 21.9 °F - 6.1 °F 51% 30.27 in - Calm Calm - N/A   Unknown
11:56 AM 24.1 °F 13.7 °F 3.9 °F 42% 30.27 in - West 10.4 mph 20.7 mph N/A   Unknown
12:56 PM 27.0 °F 18.7 °F 1.0 °F 33% 30.28 in - WNW 8.1 mph 20.7 mph N/A   Unknown
1:56 PM 30.0 °F 19.5 °F -2.9 °F 24% 30.31 in - West 13.8 mph 21.9 mph N/A   Unknown
2:56 PM 30.9 °F 22.2 °F -5.1 °F 21% 30.27 in - WNW 10.4 mph 19.6 mph N/A   Unknown
3:56 PM 30.9 °F 24.3 °F -4.0 °F 22% 30.26 in - Variable 6.9 mph - N/A   Unknown
4:56 PM 30.0 °F 23.2 °F -5.1 °F 22% 30.28 in - West 6.9 mph - N/A   Unknown
5:56 PM 30.0 °F 24.1 °F -5.1 °F 22% 30.31 in - Variable 5.8 mph - N/A   Unknown
6:56 PM 26.1 °F 19.4 °F -0.0 °F 32% 30.32 in - Variable 5.8 mph - N/A   Unknown
7:56 PM 21.0 °F 16.2 °F 6.1 °F 53% 30.35 in - Variable 3.5 mph - N/A   Unknown
8:56 PM 16.0 °F 8.8 °F 3.9 °F 59% 30.35 in - WNW 4.6 mph - N/A   Unknown
9:56 PM 10.9 °F - 1.9 °F 67% 30.38 in - Calm Calm - N/A   Unknown
10:56 PM 7.0 °F - -0.0 °F 73% 30.38 in - Calm Calm - N/A   Unknown
11:56 PM 5.0 °F - -0.9 °F 76% 30.37 in - Calm Calm - N/A   Unknown